Simultaneous Nadir Overpasses (SNOs) Predictions

Prediction of SNOs between GOES-17 and METOP-C Satellite Orbit:

Table of predicted SNOs for the next 14.0 days since TLE Epoch: 10/15/2022
Index Date Time (GOES-17) GOES-17 Lat,Lon METOP-C Lat,Lon Distance(km) Time Diff (sec)
1 10/15/2022 18:28:31 -0.08,-137.34 -0.73,-134.39 335.82 80
2 10/17/2022 06:44:54 0.08,-137.32 -0.32,-138.99 190.43 80
3 10/18/2022 06:26:55 0.08,-137.32 0.80,-134.00 378.01 80
4 10/19/2022 18:43:08 -0.07,-137.32 0.21,-138.56 141.40 80
5 10/20/2022 18:25:09 -0.07,-137.31 -0.90,-133.56 426.75 80
6 10/22/2022 06:44:11 0.07,-137.28 -0.12,-138.17 100.09 80
7 10/23/2022 06:23:33 0.07,-137.27 1.01,-133.17 467.77 80
8 10/24/2022 18:39:45 -0.07,-137.27 0.01,-137.73 52.75 80
9 10/27/2022 06:38:08 0.07,-137.21 0.06,-137.33 13.55 80
